This is the latest recevied weather packets stored in our database for station/object IU0SZS-10. If no packets are shown the sender has not sent any weather packets the latest 10 day(s).
| Time | Temp. | Humidity | Pressure | Rain* | Wind** | Luminosity | Snow |
|---|---|---|---|---|---|---|---|
| 1777723215 | 18.89° C | 25% | 923.5 hPa | - | - | - | - |
| 1777723175 | 18.89° C | 25% | 923.5 hPa | - | - | - | - |
| 1777722272 | 18.33° C | 26% | 923.7 hPa | - | - | - | - |
| 1777721370 | 18.33° C | 28% | 923.8 hPa | - | - | - | - |
| 1777720470 | 17.78° C | 28% | 923.9 hPa | - | - | - | - |
| 1777719570 | 17.22° C | 27% | 924.2 hPa | - | - | - | - |
| 1777718670 | 17.22° C | 27% | 924.2 hPa | - | - | - | - |
| 1777717804 | 16.67° C | 30% | 924.4 hPa | - | - | - | - |
| 1777717770 | 16.67° C | 30% | 924.4 hPa | - | - | - | - |
| 1777716870 | 16.11° C | 30% | 924.3 hPa | - | - | - | - |
| 1777715970 | 15.56° C | 31% | 924.5 hPa | - | - | - | - |
| 1777715069 | 15.56° C | 31% | 924.4 hPa | - | - | - | - |
| 1777714169 | 15° C | 32% | 924.5 hPa | - | - | - | - |
| 1777713269 | 14.44° C | 31% | 924.4 hPa | - | - | - | - |
| 1777712369 | 13.89° C | 33% | 924.4 hPa | - | - | - | - |
| 1777711469 | 13.33° C | 34% | 924.4 hPa | - | - | - | - |
| 1777710568 | 13.33° C | 36% | 924.4 hPa | - | - | - | - |
| 1777709668 | 12.78° C | 38% | 924.4 hPa | - | - | - | - |
| 1777708768 | 12.22° C | 38% | 924.4 hPa | - | - | - | - |
| 1777707868 | 11.67° C | 40% | 924.4 hPa | - | - | - | - |
| 1777706968 | 11.11° C | 40% | 924.3 hPa | - | - | - | - |
| 1777706068 | 10.56° C | 42% | 924.4 hPa | - | - | - | - |
| 1777705168 | 10.56° C | 43% | 924.4 hPa | - | - | - | - |
| 1777704267 | 10° C | 44% | 924.4 hPa | - | - | - | - |
| 1777703365 | 9.44° C | 44% | 924.4 hPa | - | - | - | - |
* Rain since midnight (hover to see other rain measurements)
** Current wind speed in m/s (hover to see current wind gust speed)